Location: Forest Hills
(36.0651°N, 86.8403°W)
Time: 01:13:32
(UTC+00:00)

ARIANE 6 FM1 Upper Stage - Pass Details

Date: 23 January 2026
Orbit: 522 x 609 km, 62.0° (Epoch: 10 February)

Event Time Altitude Azimuth Distance (km) Brightness Sun altitude
Rises 01:33:42 0° 260° (W) 2,708 7.3 -30.1°
Reaches altitude 10° 01:37:02 10° 289° (WNW) 1,799 6.0 -30.8°
Maximum altitude 01:38:56 13° 317° (NW) 1,609 5.4 -31.2°
Enters shadow 01:39:03 13° 319° (NW) 1,609 5.4 -31.2°
